Regional Weather Roundup
Issued by NWS

Home | Current Version | Previous Version | Graphics & Text | Print | Product List | Glossary On
Versions: 1 2 3 4 5 6 7 8 9 10 11 12 13 14 15 16 17 18 19 20 21 22 23 24 25 26 27 28 29 30 31 32 33 34 35 36 37 38 39 40 41 42 43 44 45 46 47 48 49 50
000
ASUS43 KMPX 210410
RWRMN
WEATHER ROUNDUP FOR MINNESOTA
NATIONAL WEATHER SERVICE TWIN CITIES/CHANHASSEN MN
1100 PM CDT WED AUG 20 2014


NOTE: "FAIR" INDICATES FEW OR NO CLOUDS BELOW 12,000 FEET WITH NO
SIGNIFICANT WEATHER AND/OR OBSTRUCTIONS TO VISIBILITY. N/A MEANS
CURRENT SKY AND/OR WEATHER CONDITIONS ARE NOT AVAILABLE.

MNZ060>063-068>070-210500-
   Twin Cities Metro

CITY           SKY/WX    TMP DP  RH WIND       PRES   REMARKS
TWIN CITIES    MOCLDY    73  65  75 E13       29.87S
ST PAUL        MOCLDY    72  65  78 E8        29.88S
CRYSTAL        PTCLDY    74  64  71 E9        29.86S
BLAINE         MOCLDY    73  66  78 E8        29.88S
LAKEVILLE      MOCLDY    68  66  94 E3        29.88S
EDEN PRAIRIE   PTCLDY    75  66  73 E9        29.86S
SOUTH ST PAUL  MOCLDY    73  64  75 E5        29.88S
LAKE ELMO      FAIR      70  64  83 E6        29.90S
$$
MNZ001>005-007-008-013>017-022>024-027-028-210500-
   Northwest Minnesota

CITY           SKY/WX    TMP DP  RH WIND       PRES   REMARKS
BEMIDJI        PTCLDY    66  63  89 SE8       29.87R
HALLOCK        PTCLDY    72  64  78 SE8       29.80R
ROSEAU         PTCLDY    68  63  83 SE6       29.85R
WARROAD        CLEAR     66  63  88 SE7       29.86R
THIEF RVR FALL PTCLDY    66  63  88 E7        29.84R
CROOKSTON      PTCLDY    70  64  83 SE7       29.81R
FOSSTON        CLEAR     66  61  82 SE8       29.85R
DETROIT LAKES  PTCLDY    70  64  83 SE13      29.84F
MOORHEAD       PTCLDY    73  72  94 SE10      29.78F
PARK RAPIDS    PTCLDY    68  63  84 SE9       29.87S
MAHNOMEN       FAIR      69  65  88 SE10      29.83S
$$
MNZ006-009>011-018-025>026-210500-
   North Central Minnesota

CITY           SKY/WX    TMP DP  RH WIND       PRES   REMARKS
BAUDETTE       CLEAR     66  61  84 SE5       29.87R
FLAG ISLAND    CLEAR     72  63  73 SE8       29.85S
INTL FALLS     CLEAR     61  58  90 SE5       29.88F
WASKISH        CLEAR     64  61  88 CALM      29.88R
BIG FORK       PTCLDY    63  61  94 SE3       29.90F
LONGVILLE      MOCLDY    64  63  94 SE5       29.90R
GRAND RAPIDS   MOCLDY    63  57  82 SE8       29.91F
CRANE LAKE     CLEAR     54  54 100 CALM      29.93F
ORR            CLEAR     61  57  88 CALM      29.90S
COOK           CLEAR     63  59  88 CALM      29.93S
WALKER         FAIR      67  63  87 SE8       29.88R
$$
MNZ012-019>021-037-210500-
   Northeast Minnesota

CITY           SKY/WX    TMP DP  RH WIND       PRES   REMARKS
DULUTH         PTCLDY    60  57  89 E9        29.94S
ELY            CLOUDY    63  57  82 SE3       29.95S
HIBBING        CLEAR     59  56  89 SE7       29.93S
EVELETH        CLEAR     57  55  94 CALM      29.95S
DULUTH HARBOR  PTCLDY    64  63  94 NE10      29.94S
TWO HARBORS    CLOUDY    61  55  82 E6        29.94R
SILVER BAY     CLOUDY    59  59 100 CALM      29.94S
GRAND MARAIS     N/A     62  59  90 CALM      29.95F
G MARAIS ARPRT CLOUDY    57  55  94 CALM      29.99F FOG
$$
MNZ029>031-032-039>041-046>048-054>057-064-210500-
   West Central Minnesota

CITY           SKY/WX    TMP DP  RH WIND       PRES   REMARKS
FERGUS FALLS   MOCLDY    73  63  68 SE9       29.79F
WHEATON        CLOUDY    72  66  83 E12       29.79R
MORRIS         CLOUDY    72  68  88 E10       29.79S
ALEXANDRIA     MOCLDY    71  65  81 E14       29.85F
ELBOW LAKE     FAIR      73  66  81 E10       29.80F
WADENA         PTCLDY    68  64  88 E9        29.85F
GLENWOOD       MOCLDY    72  66  83 E12       29.84F
APPLETON       CLOUDY    75  68  78 SE9       29.77F
BENSON         CLOUDY    73  66  78 SE10      29.79F
ORTONVILLE     CLOUDY    73  68  83 SE9       29.77S
MADISON        CLOUDY    75  70  83 SE9       29.77F
WILLMAR        FAIR      75  66  73 E9        29.83F
$$
MNZ033>034-036-042>043-049>051-058-059-210500-
   Central Minnesota

CITY           SKY/WX    TMP DP  RH WIND       PRES   REMARKS
ST CLOUD       MOCLDY    71  65  81 E8        29.86F
SAUK CENTRE    FAIR      69  65  86 E10       29.85F
PAYNESVILLE    PTCLDY    69  65  86 NE8       29.85F
AITKIN         MOCLDY    66  61  82 SE5       29.90S
PINE RIVER     MOCLDY    66  63  88 SE8       29.92S
BRAINERD       MOCLDY    67  62  84 VRB6      29.89F
STAPLES        PTCLDY    66  63  88 SE7       29.87F
LONG PRAIRIE   FAIR      68  64  88 E9        29.87F
LITTLE FALLS   PTCLDY    68  61  77 E8        29.87F
LITCHFIELD     PTCLDY    73  72  94 E8        29.85F
BUFFALO        PTCLDY    71  65  79 E5        29.88R
MAPLE LAKE     PTCLDY    72  68  86 E9        29.87F
$$
MNZ037-044-045-052-053-210500-
   East Central Minnesota

CITY           SKY/WX    TMP DP  RH WIND       PRES   REMARKS
PRINCETON      CLEAR     70  64  83 E5        29.89S
MORA           PTCLDY    64  61  88 E5        29.92S
CAMBRIDGE      PTCLDY    72  61  68 E5        29.88S
RUSH CITY      PTCLDY    66  63  89 E3        29.91S
MOOSE LAKE     PTCLDY    61  59  94 CALM      29.91F
HINCKLEY       CLOUDY    64  63  94 E6        29.92F
CLOQUET        PTCLDY    61  57  88 E5        29.94S
MCGREGOR       MOCLDY    63  61  94 SE5       29.92S
$$
MNZ071>073-080-081-089-090-097-098-210500-
   Southwest Minnesota

CITY           SKY/WX    TMP DP  RH WIND       PRES   REMARKS
MONTEVIDEO     CLOUDY    73  70  88 S9        29.79F
GRANITE FALLS  CLOUDY    73  70  89 E8        29.81F
CANBY          MOCLDY    72  69  92 SE9       29.78F
MARSHALL       MOCLDY    73  66  78 SE12      29.77F
REDWOOD FALLS  CLOUDY    74  69  85 SE10      29.81F
OLIVIA         CLOUDY    73  68  83 SE8       29.81F
PIPESTONE      CLOUDY    72  70  94 SE9       29.79F
WINDOM         CLOUDY    72  68  88 E7        29.82F
WORTHINGTON    CLOUDY    70  12  11 SE7       29.83S
JACKSON        RAIN      72  68  88 SE8       29.84F
TRACY          CLOUDY    72  69  90 SE8       29.80F
SLAYTON        CLOUDY    69  68  96 CALM      29.82F
$$
MNZ065>067-074>077-082>085-091>093-210500-
   South Central Minnesota

CITY           SKY/WX    TMP DP  RH WIND       PRES   REMARKS
MANKATO        MOCLDY    73  66  78 SE8       29.86S
NEW ULM        CLOUDY    73  70  88 SE8       29.84S
ST JAMES       CLOUDY    72  66  83 E7        29.84F
FAIRMONT       CLOUDY    72  64  78 SE7       29.84S
GLENCOE        MOCLDY    74  68  80 E6        29.85S
FARIBAULT      MOCLDY    73  66  78 NE3       29.88S
OWATONNA       MOCLDY    73  66  78 SE6       29.88R
WASECA         CLOUDY    72  64  78 SE6       29.89S
ALBERT LEA     MOCLDY    72  68  88 SE6       29.87S
$$
MNZ078>079-086>088-094>096-210500-
   Southeast Minnesota

CITY           SKY/WX    TMP DP  RH WIND       PRES   REMARKS
ROCHESTER      MOCLDY    70  66  87 SE3       29.90S
RED WING       MOCLDY    73  64  73 E8        29.87F
STANTON        MOCLDY    73  67  82 E3        29.86S
DODGE CENTER   PTCLDY    70  66  88 CALM      29.89S
WINONA         PTCLDY    73  68  83 SE5       29.90S
AUSTIN         PTCLDY    70  66  88 SE3       29.88S
PRESTON        PTCLDY    69  69 100 SE5       29.90F
$$
ABBREVIATIONS USED IN REMARKS
   TC - TEMPERATURES IN CELSIUS
  WCI - WIND CHILL INDEX
   HX - HEAT INDEX
  VSB - VISIBILITY
$$


USA.gov is the U.S. government's official web portal to all federal, state and local government web resources and services.